Time,TemperatureF,DewpointF,PressureIn,WindDirection,WindDirectionDegrees,WindSpeedMPH,WindSpeedGustMPH,Humidity,HourlyPrecipIn,Conditions,Clouds,dailyrainin,SoftwareType,DateUTC
2017-02-21 03:12:00,56.0,-99.9,30.08,SW,229,16.0,24.0,-999,-99.99,,,-99.99,,2017-02-21 11:12:00,
2017-02-21 04:11:00,57.0,-99.9,30.09,SSW,213,14.0,-999.0,-999,-99.99,,,-99.99,,2017-02-21 12:11:00,
2017-02-21 05:12:00,53.0,-99.9,30.13,SW,222,13.0,16.0,-999,-99.99,,,-99.99,,2017-02-21 13:12:00,
2017-02-21 06:12:00,54.0,-99.9,30.13,WSW,239,17.0,24.0,-999,-99.99,,,-99.99,,2017-02-21 14:12:00,
2017-02-21 07:11:00,54.0,-99.9,30.15,SW,227,15.0,-999.0,-999,-99.99,,,-99.99,,2017-02-21 15:11:00,
2017-02-21 07:40:00,54.0,-99.9,30.16,SW,230,14.0,20.0,-999,-99.99,,,-99.99,,2017-02-21 15:40:00,
2017-02-21 08:18:00,54.0,-99.9,30.17,SW,226,13.0,15.0,-999,-99.99,,,-99.99,,2017-02-21 16:18:00,
2017-02-21 08:40:00,55.0,-99.9,30.18,WSW,238,12.0,16.0,-999,-99.99,,,-99.99,,2017-02-21 16:40:00,
2017-02-21 08:48:00,56.0,-99.9,30.20,SW,236,9.0,13.0,-999,-99.99,,,-99.99,,2017-02-21 16:48:00,
2017-02-21 09:06:00,56.0,-99.9,30.20,SW,221,12.0,16.0,-999,-99.99,,,-99.99,,2017-02-21 17:06:00,
2017-02-21 09:11:00,55.0,-99.9,30.19,WSW,241,8.0,10.0,-999,-99.99,,,-99.99,,2017-02-21 17:11:00,
2017-02-21 09:29:00,56.0,-99.9,30.20,SW,236,9.0,13.0,-999,-99.99,,,-99.99,,2017-02-21 17:29:00,
2017-02-21 09:30:00,56.0,-99.9,30.20,West,268,11.0,16.0,-999,-99.99,,,-99.99,,2017-02-21 17:30:00,
2017-02-21 10:18:00,56.0,-99.9,30.20,West,268,11.0,16.0,-999,-99.99,,,-99.99,,2017-02-21 18:18:00,
2017-02-21 10:27:00,56.0,-99.9,30.20,West,268,11.0,16.0,-999,-99.99,,,-99.99,,2017-02-21 18:27:00,
2017-02-21 11:29:00,55.0,-99.9,30.22,SW,231,12.0,22.0,-999,-99.99,,,-99.99,,2017-02-21 19:29:00,
2017-02-21 12:11:00,56.0,-99.9,30.22,WSW,242,9.0,13.0,-999,-99.99,,,-99.99,,2017-02-21 20:11:00,
2017-02-21 13:10:00,54.0,-99.9,30.20,West,277,16.0,19.0,-999,-99.99,,,-99.99,,2017-02-21 21:10:00,
2017-02-21 13:41:00,53.0,-99.9,30.20,West,264,12.0,17.0,-999,-99.99,,,-99.99,,2017-02-21 21:41:00,
2017-02-21 14:11:00,51.0,-99.9,30.20,WSW,243,17.0,24.0,-999,-99.99,,,-99.99,,2017-02-21 22:11:00,
2017-02-21 15:10:00,55.0,-99.9,30.18,WSW,252,13.0,19.0,-999,-99.99,,,-99.99,,2017-02-21 23:10:00,
2017-02-21 15:41:00,52.0,-99.9,30.20,WNW,301,10.0,13.0,-999,-99.99,,,-99.99,,2017-02-21 23:41:00,
2017-02-21 16:00:00,51.0,-99.9,30.20,West,271,6.0,7.0,-999,-99.99,,,-99.99,,2017-02-22 00:00:00,
2017-02-21 16:19:00,52.0,-99.9,30.20,WSW,248,3.0,4.0,-999,-99.99,,,-99.99,,2017-02-22 00:19:00,
2017-02-21 16:51:00,52.0,-99.9,30.19,SSW,210,3.0,3.0,-999,-99.99,,,-99.99,,2017-02-22 00:51:00,
2017-02-21 17:10:00,54.0,-99.9,30.19,SSW,192,3.0,4.0,-999,-99.99,,,-99.99,,2017-02-22 01:10:00,
2017-02-21 17:50:00,53.0,-99.9,30.19,SSE,159,5.0,6.0,-999,-99.99,,,-99.99,,2017-02-22 01:50:00,
2017-02-21 18:10:00,53.0,-99.9,30.19,SSW,196,4.0,5.0,-999,-99.99,,,-99.99,,2017-02-22 02:10:00,
2017-02-21 18:54:00,52.0,-99.9,30.20,NNW,330,1.0,-999.0,-999,-99.99,,,-99.99,,2017-02-22 02:54:00,
2017-02-21 19:10:00,52.0,-99.9,30.21,WNW,299,3.0,3.0,-999,-99.99,,,-99.99,,2017-02-22 03:10:00,
2017-02-21 19:40:00,53.0,-99.9,30.21,WSW,237,5.0,7.0,-999,-99.99,,,-99.99,,2017-02-22 03:40:00,
2017-02-21 20:10:00,52.0,-99.9,30.21,West,260,9.0,10.0,-999,-99.99,,,-99.99,,2017-02-22 04:10:00,
2017-02-21 20:29:00,52.0,-99.9,30.22,West,262,7.0,8.0,-999,-99.99,,,-99.99,,2017-02-22 04:29:00,
2017-02-21 21:10:00,52.0,-99.9,30.23,WSW,241,6.0,9.0,-999,-99.99,,,-99.99,,2017-02-22 05:10:00,
2017-02-21 21:29:00,51.0,-99.9,30.24,WSW,237,7.0,9.0,-999,-99.99,,,-99.99,,2017-02-22 05:29:00,
2017-02-21 22:10:00,52.0,-99.9,30.24,West,266,13.0,15.0,-999,-99.99,,,-99.99,,2017-02-22 06:10:00,